When you browse on this site, cookies collect data to enhance your experience and personalize the content and advertising you see.
Visit our Privacy Policy to learn more. By continuing to use the site, you agree to this use of cookies and data.
  • In Hungary
  • List of Countries
  • For 7 days
  • Water Temperature
  • Satellite Maps
  • Weather Map
  • News
  • Weather Widgets
  • user-avatar
    Login

    Hourly Weather Worcester

    Today, 16 January, Wednesday

    Time Temperature Precipitation Wind Pressure Humidity
    00:00 +7°C° 0 mm 4 mps 753 mmHg 92%
    01:00 +7°C° 0.1 mm 5 mps 753 mmHg 91%
    02:00 +8°C° 0.1 mm 6 mps 752 mmHg 90%
    03:00 +8°C° 0.1 mm 7 mps 751 mmHg 88%
    04:00 +8°C° 0.2 mm 6 mps 750 mmHg 89%
    05:00 +8°C° 0.2 mm 6 mps 750 mmHg 89%
    06:00 +8°C° 0.2 mm 6 mps 749 mmHg 90%
    07:00 +7°C° 0 mm 6 mps 748 mmHg 90%
    08:00 +7°C° 0 mm 5 mps 748 mmHg 90%
    09:00 +7°C° 0 mm 5 mps 747 mmHg 90%
    10:00 +7°C° 0.3 mm 6 mps 747 mmHg 89%
    11:00 +7°C° 0.3 mm 6 mps 747 mmHg 87%
    12:00 +6°C° 0.3 mm 7 mps 747 mmHg 86%
    13:00 +7°C° 0.5 mm 6 mps 747 mmHg 83%
    14:00 +6°C° 0.5 mm 5 mps 746 mmHg 81%
    15:00 +6°C° 0.5 mm 4 mps 746 mmHg 79%
    16:00 +5°C° 0 mm 4 mps 746 mmHg 81%
    17:00 +4°C° 0 mm 4 mps 746 mmHg 82%
    18:00 +3°C° 0 mm 3 mps 746 mmHg 84%
    19:00 +2°C° 0 mm 3 mps 746 mmHg 85%
    20:00 +2°C° 0 mm 3 mps 747 mmHg 87%
    21:00 +2°C° 0 mm 3 mps 747 mmHg 88%
    22:00 +1°C° 0.1 mm 4 mps 747 mmHg 88%
    23:00 +3°C° 0.1 mm 4 mps 747 mmHg 87%

    Tomorrow, 17 January, Thursday

    Time Temperature Precipitation Wind Pressure Humidity
    00:00 +3°C° 0.1 mm 4 mps 748 mmHg 86%
    01:00 +3°C° 0 mm 4 mps 748 mmHg 86%
    02:00 +1°C° 0 mm 4 mps 749 mmHg 85%
    03:00 +1°C° 0 mm 4 mps 750 mmHg 85%
    04:00 0°C° 0 mm 4 mps 751 mmHg 85%
    05:00 0°C° 0 mm 5 mps 752 mmHg 86%
    06:00 0°C° 0 mm 5 mps 753 mmHg 86%
    07:00 -1°C° 0 mm 4 mps 754 mmHg 82%
    08:00 -1°C° 0 mm 4 mps 755 mmHg 77%
    09:00 -2°C° 0 mm 4 mps 756 mmHg 73%
    10:00 -1°C° 0 mm 4 mps 757 mmHg 67%
    11:00 0°C° 0 mm 4 mps 757 mmHg 62%
    12:00 +1°C° 0 mm 5 mps 758 mmHg 56%
    13:00 +1°C° 0 mm 4 mps 758 mmHg 59%
    14:00 +2°C° 0 mm 3 mps 758 mmHg 62%
    15:00 +3°C° 0 mm 2 mps 758 mmHg 65%
    16:00 +2°C° 0 mm 2 mps 759 mmHg 68%
    17:00 +1°C° 0 mm 2 mps 759 mmHg 71%
    18:00 +1°C° 0 mm 2 mps 760 mmHg 74%
    19:00 +2°C° 0 mm 1 mps 760 mmHg 74%
    20:00 +2°C° 0 mm 1 mps 760 mmHg 73%
    21:00 +2°C° 0 mm 1 mps 760 mmHg 73%
    22:00 +2°C° 0 mm 1 mps 760 mmHg 72%
    23:00 +2°C° 0 mm 1 mps 760 mmHg 72%

    Day after tomorrow, 18 January, Friday

    Time Temperature Precipitation Wind Pressure Humidity
    00:00 +1°C° 0 mm 2 mps 759 mmHg 72%
    01:00 -1°C° 0 mm 2 mps 759 mmHg 73%
    02:00 -1°C° 0 mm 2 mps 759 mmHg 75%
    03:00 -2°C° 0 mm 3 mps 758 mmHg 76%
    04:00 -1°C° 0 mm 3 mps 757 mmHg 74%
    05:00 -2°C° 0 mm 4 mps 757 mmHg 72%
    06:00 -2°C° 0 mm 5 mps 756 mmHg 70%
    07:00 -1°C° 0.1 mm 5 mps 755 mmHg 71%
    08:00 -1°C° 0.1 mm 6 mps 755 mmHg 72%
    09:00 +1°C° 0.1 mm 6 mps 754 mmHg 73%
    10:00 +2°C° 0.1 mm 7 mps 754 mmHg 75%
    11:00 +2°C° 0.1 mm 8 mps 753 mmHg 78%
    12:00 +3°C° 0.1 mm 9 mps 753 mmHg 80%
    13:00 +2°C° 1.4 mm 8 mps 752 mmHg 82%
    14:00 +2°C° 1.4 mm 8 mps 752 mmHg 84%
    15:00 +2°C° 1.4 mm 8 mps 751 mmHg 87%
    16:00 +3°C° 0.7 mm 7 mps 751 mmHg 89%
    17:00 +3°C° 0.7 mm 6 mps 751 mmHg 92%
    18:00 +3°C° 0.7 mm 5 mps 750 mmHg 94%
    19:00 +4°C° 0.1 mm 4 mps 750 mmHg 95%
    20:00 +4°C° 0.1 mm 4 mps 750 mmHg 96%
    21:00 +4°C° 0.1 mm 3 mps 750 mmHg 97%
    22:00 +3°C° 0 mm 3 mps 750 mmHg 97%
    23:00 +4°C° 0 mm 2 mps 750 mmHg 97%

    19 January, Saturday

    Time Temperature Precipitation Wind Pressure Humidity
    00:00 +3°C° 0 mm 2 mps 749 mmHg 97%
    01:00 +3°C° 0 mm 2 mps 749 mmHg 96%
    02:00 +3°C° 0 mm 2 mps 749 mmHg 96%
    03:00 +3°C° 0 mm 1 mps 749 mmHg 95%
    04:00 +3°C° 0 mm 1 mps 749 mmHg 95%
    05:00 +3°C° 0 mm 1 mps 749 mmHg 95%
    06:00 +3°C° 0 mm 1 mps 748 mmHg 94%
    07:00 +3°C° 0 mm 1 mps 749 mmHg 94%
    08:00 +3°C° 0 mm 1 mps 749 mmHg 94%
    09:00 +3°C° 0 mm 1 mps 749 mmHg 94%
    10:00 +4°C° 0 mm 1 mps 749 mmHg 91%
    11:00 +5°C° 0 mm 1 mps 750 mmHg 88%
    12:00 +7°C° 0 mm 1 mps 750 mmHg 85%
    13:00 +7°C° 0 mm 1 mps 750 mmHg 86%
    14:00 +7°C° 0 mm 1 mps 750 mmHg 88%
    15:00 +6°C° 0 mm 2 mps 750 mmHg 89%
    16:00 +5°C° 0 mm 2 mps 750 mmHg 91%
    17:00 +4°C° 0 mm 2 mps 751 mmHg 92%
    18:00 +4°C° 0 mm 2 mps 751 mmHg 94%
    19:00 +3°C° 0 mm 2 mps 752 mmHg 93%
    20:00 +3°C° 0 mm 2 mps 753 mmHg 93%
    21:00 +3°C° 0 mm 2 mps 753 mmHg 93%
    22:00 +4°C° 0 mm 2 mps 754 mmHg 93%
    23:00 +4°C° 0 mm 2 mps 754 mmHg 93%

    20 January, Sunday

    Time Temperature Precipitation Wind Pressure Humidity
    00:00 +4°C° 0 mm 2 mps 755 mmHg 94%
    01:00 +4°C° 0 mm 2 mps 755 mmHg 94%
    02:00 +4°C° 0 mm 2 mps 756 mmHg 94%
    03:00 +4°C° 0 mm 2 mps 756 mmHg 95%
    04:00 +4°C° 0 mm 2 mps 756 mmHg 95%
    05:00 +4°C° 0 mm 2 mps 757 mmHg 95%
    06:00 +4°C° 0 mm 2 mps 757 mmHg 95%
    07:00 +4°C° 0.1 mm 2 mps 758 mmHg 95%
    08:00 +4°C° 0.1 mm 2 mps 759 mmHg 95%
    09:00 +4°C° 0.1 mm 2 mps 759 mmHg 95%
    10:00 +4°C° 0.1 mm 2 mps 760 mmHg 93%
    11:00 +5°C° 0.1 mm 2 mps 760 mmHg 92%
    12:00 +4°C° 0.1 mm 3 mps 761 mmHg 90%
    13:00 +5°C° 0.1 mm 3 mps 761 mmHg 90%
    14:00 +5°C° 0.1 mm 3 mps 761 mmHg 89%
    15:00 +5°C° 0.1 mm 3 mps 761 mmHg 89%
    16:00 +5°C° 0 mm 2 mps 762 mmHg 90%
    17:00 +4°C° 0 mm 2 mps 763 mmHg 92%
    18:00 +3°C° 0 mm 2 mps 763 mmHg 93%
    19:00 +3°C° 0 mm 2 mps 764 mmHg 94%
    20:00 +2°C° 0 mm 2 mps 764 mmHg 94%
    21:00 +2°C° 0 mm 2 mps 765 mmHg 94%
    22:00 +2°C° 0 mm 2 mps 765 mmHg 94%
    23:00 +1°C° 0 mm 2 mps 766 mmHg 94%

    21 January, Monday

    Time Temperature Precipitation Wind Pressure Humidity
    00:00 +1°C° 0 mm 2 mps 766 mmHg 94%
    01:00 +1°C° 0 mm 2 mps 766 mmHg 93%
    02:00 -1°C° 0 mm 2 mps 766 mmHg 93%
    03:00 -1°C° 0 mm 2 mps 767 mmHg 93%
    04:00 -1°C° 0 mm 2 mps 767 mmHg 92%
    05:00 +1°C° 0 mm 1 mps 767 mmHg 92%
    06:00 0°C° 0 mm 1 mps 767 mmHg 91%
    07:00 0°C° 0 mm 1 mps 767 mmHg 90%
    08:00 +1°C° 0 mm 1 mps 768 mmHg 89%
    09:00 +1°C° 0 mm 1 mps 768 mmHg 88%
    10:00 +1°C° 0 mm 0 mps 768 mmHg 83%
    11:00 +2°C° 0 mm 0 mps 768 mmHg 78%
    12:00 +3°C° 0 mm 0 mps 768 mmHg 73%
    13:00 +4°C° 0 mm 0 mps 767 mmHg 73%
    14:00 +5°C° 0 mm 1 mps 767 mmHg 74%
    15:00 +5°C° 0 mm 1 mps 766 mmHg 74%
    16:00 +4°C° 0 mm 1 mps 766 mmHg 78%
    17:00 +2°C° 0 mm 2 mps 766 mmHg 83%
    18:00 -1°C° 0 mm 2 mps 766 mmHg 88%
    19:00 -1°C° 0 mm 2 mps 765 mmHg 89%
    20:00 -1°C° 0 mm 3 mps 765 mmHg 90%
    21:00 -1°C° 0 mm 3 mps 764 mmHg 91%
    22:00 -1°C° 0.1 mm 4 mps 763 mmHg 92%
    23:00 0°C° 0.1 mm 4 mps 763 mmHg 92%
    Show more